カタログに戻る

STARLINK-34029

運用中通信VLEO
NORAD 63805·PAYLOAD·🇺🇸 United States

打ち上げ May 4, 2025 から Cape Canaveral Space Force Station

Loading…

次のパス (今後24時間)

TLE

最新Source: CelesTrak SupGP

元期: Sep 14, 2026, 21:13 UTC

1 63805C 25092B   26257.88451389 -.00008458  00000+0 -30631-3 0  2577
2 63805  43.0003 184.4308 0001372 262.8917 160.9864 15.27585693    16

AllMySatでSTARLINK-34029をリアルタイム追跡

Download on the App Store